Regional Weather Roundup
Issued by NWS Newport/Morehead, NC

Home | Current Version | Previous Version | Text Only | Print | Product List | Glossary On
Versions: 1 2 3 4 5 6 7 8 9 10 11 12 13 14 15 16 17 18 19 20 21 22 23 24 25 26 27 28 29 30 31 32 33 34 35 36 37 38 39 40 41 42 43 44 45 46 47 48 49 50
000
ASUS42 KMHX 040328
RWRMHX
WEATHER ROUNDUP FOR EASTERN NORTH CAROLINA
NATIONAL WEATHER SERVICE NEWPORT/MOREHEAD CITY NC
1000 PM EST TUE MAR 03 2015

NOTE: "FAIR" INDICATES FEW OR NO CLOUDS BELOW 12,000 FEET
WITH NO SIGNIFICANT WEATHER AND/OR OBSTRUCTIONS TO VISIBILITY

NCZ015>017-031-032-045>047-102-103-040400-
NORTH COAST

CITY           SKY/WX    TMP DP  RH WIND       PRES   REMARKS
EDENTON        CLOUDY    42  40  95 CALM      30.10F FOG
ELIZABETH CITY LGT RAIN  44  42  93 CALM      30.10F
KITTY HAWK     CLOUDY    54  52  95 S8        30.09S
MANTEO         CLOUDY    48  48 100 S16       30.11F

$$

NCZ045>047-081-094-103-104-040400-
CENTRAL COAST

CITY           SKY/WX    TMP DP  RH WIND       PRES   REMARKS
FRISCO         CLOUDY    55  52  89 S16G26    30.12F
SWANQUARTER      N/A     46 N/A N/A SW5       30.06F

$$

NCZ095-097-098-100-101-040400-
SOUTHERN COAST

CITY           SKY/WX    TMP DP  RH WIND       PRES   REMARKS
BEAUFORT       LGT RAIN  60  60 100 S13       30.13F
CEDAR ISLAND     N/A     61 N/A N/A S9G23     30.15S
JACKSONVILLE   FOG       46  45  96 CALM      30.14S VSB 1/8
PINEY ISLAND     N/A    N/A N/A N/A MISG      30.12F
WILMINGTON     FOG       45  45 100 CALM      30.15S VSB 1/4


$$

NCZ011>013-027>030-043-044-078>080-089-090>093-098-040400-
COASTAL PLAIN

CITY           SKY/WX    TMP DP  RH WIND       PRES   REMARKS
AHOSKIE        LGT RAIN  37  37  98 CALM      30.11F
CLINTON        CLOUDY    40  40 100 CALM      30.16S FOG
ELIZABETHTOWN  FOG       40  40 100 CALM      30.14F VSB 1/2
GOLDSBORO      CLOUDY    40  40 100 W6        30.12F
GREENVILLE     CLOUDY    41  41 100 CALM      30.14F FOG
HAVELOCK       RAIN      49  47  93 S3        30.14F
KENANSVILLE    CLOUDY    41  40  99 W3        30.15S FOG
KINSTON        CLOUDY    41  41  99 CALM      30.14F FOG
NEW BERN       CLOUDY    47  45  93 S5        30.13F FOG
RICHLANDS      CLOUDY    45  41  87 W3        30.14F VSB 1/2
ROCKY MOUNT    CLOUDY    39  38  96 SW5       30.12F FOG
WASHINGTON     CLOUDY    42  41  97 W3        30.13F FOG
WHITEVILLE     FOG       42  41  97 CALM      30.15F VSB 3/4

$$

AMZ130-135-150-152-154-156-158-170-250-252-270-ANZ085-086-088-633-658-670-040400-
MARINE OBSERVATIONS

STATION/POSITION TIME  TEMP    WIND        PRES    WAVE   SWELL
                       AIR SEA DIR/SP/G            HT/PER HT/PER
                 (UTC) (F)     (DEG/KT/KT) (MB)    (FT/S) (FT/S)
CHESAPEAKE LIGHT 0300   43     210/ 21/ 22 1018.4
64 E VA BEACH    0250   59 58  200/ 21/ 25 1018.4    6/ 6   2/ 9
DUCK             0300   49 36  200/ 10/ 12 1018.3
2 E DUCK         0211      35                N/A     2/ 8
10 NE DUCK       0222      37                N/A     3/10
OREGON INLET     0300   51 41  170/ 14/ 21 1019.4
HATTERAS CG      0300   56 44  180/ 16/ 20 1019.8
CAPE LOOKOUT     0300   59     210/ 13/ 18 1020.5
BEAUFORT LAB     0300   54 44  190/  9/ 12 1019.3
27 SE WRIGHTSVLE NOT AVBL
5 SE WRIGHTSVLE  NOT AVBL
225 S CAPE HAT   0250   69 72  170/ 16/ 19 1025.1    6/ 8   5/ 8
41 SE CHARLESTON 0250   65 68  140/  4/  6 1021.1    5/ 9   5/ 9

$$



USA.gov is the U.S. government's official web portal to all federal, state and local government web resources and services.